ABS-6

Last updated on Tue Sep 22 2026 00:03:10 GMT+0000 (Coordinated Universal Time)

1 25924U 99053A 26264.51747626 .00000000 00000+0 00000+0 0 9994 2 25924 0.0293 132.3621 0001385 73.5173 139.8237 1.00269829 98804
UTC large
Height (km)
Speed (km/s)
/
Latitude / Longitude
Inclination (degrees)
Orbital Period (minutes)
Azimuth
Elevation
Range (km)
Doppler Factor

Next 0 passes for location: London (51.5072 / 0.1276)

No passes found over London.
ABS-6